Hourly Data Report for October 25, 2013

All times are specified in Local Standard Time (LST). Add 1 hour to adjust for Daylight Saving Time where and when it is observed.

CHARLOTTETOWN A
PRINCE EDWARD ISLAND

46°17'21.000" N
63°07'09.000" W
48.50 m
8300301
71706
YYG

Related Data

No related data is available for this station

Download Data

Hourly Data (October 2013)
Hourly Data Report for October 25, 2013
Temp Definition
°C
Dew Point Temp Definition
°C
Rel Hum Definition
%
Wind Dir Definition
10's deg

Wind Spd Definition
km/h
Visibility Definition
km
Stn Press Definition
kPa
Hmdx Definition


Wind Chill Definition


Weather Definition


TIME
00:00 Legend Double Dagger 6.0 -3.1 52 24 40 24.1 99.59     LegendNANA
01:00 Legend Double Dagger 5.8 -2.8 54 25 28 24.1 99.63     LegendNANA
02:00 Legend Double Dagger 5.6 -2.0 58 25 21 24.1 99.69     Mostly Cloudy
03:00 Legend Double Dagger 5.5 -1.4 61 25 22 24.1 99.72     LegendNANA
04:00 Legend Double Dagger 4.8 -1.0 66 25 22 24.1 99.79     LegendNANA
05:00 Legend Double Dagger 4.9 -0.7 67 25 31 24.1 99.87     Mostly Cloudy
06:00 Legend Double Dagger 4.7 -0.5 69 24 23 24.1 99.96     LegendNANA
07:00 Legend Double Dagger 3.8 -0.2 75 25 19 24.1 100.05     LegendNANA
08:00 Legend Double Dagger 4.8 0.6 74 25 20 24.1 100.15     Mainly Clear
09:00 Legend Double Dagger 6.3 1.4 71 27 18 24.1 100.16     LegendNANA
10:00 Legend Double Dagger 7.0 1.5 68 26 27 24.1 100.20     LegendNANA
11:00 Legend Double Dagger 6.6 0.9 67 26 19 24.1 100.24     Mostly Cloudy
12:00 Legend Double Dagger 7.2 1.3 66 25 20 24.1 100.26     LegendNANA
13:00 Legend Double Dagger 7.8 1.0 62 26 23 24.1 100.24     LegendNANA
14:00 Legend Double Dagger 7.9 0.6 60 29 17 24.1 100.26     Mostly Cloudy
15:00 Legend Double Dagger 7.8 0.3 59 27 18 24.1 100.32     LegendNANA
16:00 Legend Double Dagger 7.7 0.9 62 25 9 24.1 100.35     LegendNANA
17:00 Legend Double Dagger 6.8 0.0 62 26 11 24.1 100.38     Mainly Clear
18:00 Legend Double Dagger 5.4 -0.4 66 27 9 24.1 100.46     LegendNANA
19:00 Legend Double Dagger 4.8 -1.2 65 26 7 24.1 100.51     LegendNANA
20:00 Legend Double Dagger 4.5 -1.1 67 25 9 24.1 100.55     Mainly Clear
21:00 Legend Double Dagger 4.2 -1.0 69 24 9 24.1 100.57     LegendNANA
22:00 Legend Double Dagger 3.5 -0.7 74 26 10 24.1 100.59     LegendNANA
23:00 Legend Double Dagger 4.4 0.6 76 26 9 24.1 100.60     Mainly Clear

Notes on Data Quality.

Legend

  • E = Estimated
  • M = Missing
  • NA = Not Available
  • ‡ = Partner data that is not subject to review by the National Climate Archives
Date modified: